• In Moldova, Republic
  • List of Countries
  • For 7 days
  • Water Temperature
  • Satellite Maps
  • Weather Map
  • Weather Widgets
  • user-avatar
    Login

    Hourly Weather Barra

    Today, 28 July, Friday

    Time Temperature Precipitation Wind Pressure Humidity
    00:00 +18°C° 0.1 mm 4 mps 754 mmHg 93%
    01:00 +18°C° 0.1 mm 4 mps 754 mmHg 93%
    02:00 +18°C° 0.1 mm 4 mps 754 mmHg 93%
    03:00 +18°C° 0.1 mm 4 mps 753 mmHg 93%
    04:00 +18°C° 0.1 mm 4 mps 753 mmHg 93%
    05:00 +18°C° 0.1 mm 4 mps 754 mmHg 93%
    06:00 +18°C° 0.1 mm 4 mps 754 mmHg 92%
    07:00 +18°C° 0.1 mm 4 mps 754 mmHg 92%
    08:00 +19°C° 0.1 mm 5 mps 754 mmHg 84%
    09:00 +21°C° 0.1 mm 5 mps 754 mmHg 76%
    10:00 +22°C° 0.1 mm 5 mps 755 mmHg 67%
    11:00 +23°C° 0 mm 5 mps 754 mmHg 64%
    12:00 +25°C° 0 mm 5 mps 754 mmHg 60%
    13:00 +25°C° 0 mm 5 mps 754 mmHg 56%
    14:00 +25°C° 0 mm 5 mps 753 mmHg 57%
    15:00 +25°C° 0 mm 5 mps 753 mmHg 58%
    16:00 +25°C° 0 mm 5 mps 753 mmHg 60%
    17:00 +22°C° 0 mm 5 mps 753 mmHg 68%
    18:00 +20°C° 0 mm 4 mps 753 mmHg 77%
    19:00 +19°C° 0 mm 4 mps 753 mmHg 86%
    20:00 +19°C° 0 mm 4 mps 754 mmHg 87%
    21:00 +18°C° 0 mm 4 mps 754 mmHg 89%
    22:00 +18°C° 0 mm 4 mps 754 mmHg 90%
    23:00 +18°C° 0 mm 4 mps 754 mmHg 90%

    Tomorrow, 29 July, Saturday

    Time Temperature Precipitation Wind Pressure Humidity
    00:00 +18°C° 0 mm 4 mps 754 mmHg 90%
    01:00 +18°C° 0 mm 4 mps 754 mmHg 90%
    02:00 +18°C° 0.1 mm 4 mps 754 mmHg 90%
    03:00 +18°C° 0.1 mm 4 mps 753 mmHg 90%
    04:00 +18°C° 0.1 mm 4 mps 753 mmHg 90%
    05:00 +18°C° 0 mm 4 mps 753 mmHg 90%
    06:00 +18°C° 0 mm 4 mps 753 mmHg 90%
    07:00 +18°C° 0 mm 4 mps 754 mmHg 90%
    08:00 +20°C° 0 mm 4 mps 754 mmHg 80%
    09:00 +22°C° 0 mm 4 mps 754 mmHg 70%
    10:00 +25°C° 0 mm 5 mps 754 mmHg 61%
    11:00 +25°C° 0 mm 5 mps 754 mmHg 57%
    12:00 +26°C° 0 mm 5 mps 753 mmHg 54%
    13:00 +27°C° 0 mm 5 mps 753 mmHg 50%
    14:00 +26°C° 0 mm 5 mps 752 mmHg 51%
    15:00 +26°C° 0 mm 5 mps 752 mmHg 52%
    16:00 +25°C° 0 mm 5 mps 751 mmHg 54%
    17:00 +23°C° 0 mm 5 mps 752 mmHg 62%
    18:00 +21°C° 0 mm 4 mps 752 mmHg 70%
    19:00 +19°C° 0 mm 4 mps 752 mmHg 78%
    20:00 +19°C° 0 mm 4 mps 753 mmHg 80%
    21:00 +19°C° 0 mm 4 mps 753 mmHg 82%
    22:00 +18°C° 0 mm 4 mps 753 mmHg 84%
    23:00 +19°C° 0 mm 4 mps 753 mmHg 83%

    Day after tomorrow, 30 July, Sunday

    Time Temperature Precipitation Wind Pressure Humidity
    00:00 +19°C° 0 mm 4 mps 753 mmHg 81%
    01:00 +20°C° 0 mm 4 mps 752 mmHg 80%
    02:00 +19°C° 0.1 mm 4 mps 752 mmHg 81%
    03:00 +19°C° 0.1 mm 4 mps 752 mmHg 83%
    04:00 +19°C° 0.1 mm 3 mps 752 mmHg 84%
    05:00 +19°C° 0.1 mm 3 mps 752 mmHg 85%
    06:00 +19°C° 0.1 mm 3 mps 752 mmHg 86%
    07:00 +19°C° 0.1 mm 3 mps 753 mmHg 88%
    08:00 +20°C° 0.1 mm 4 mps 753 mmHg 80%
    09:00 +22°C° 0.1 mm 4 mps 753 mmHg 73%
    10:00 +25°C° 0.1 mm 5 mps 753 mmHg 66%
    11:00 +25°C° 0 mm 5 mps 753 mmHg 64%
    12:00 +25°C° 0 mm 4 mps 752 mmHg 62%
    13:00 +26°C° 0 mm 4 mps 751 mmHg 60%
    14:00 +26°C° 0.1 mm 4 mps 751 mmHg 61%
    15:00 +25°C° 0.1 mm 4 mps 751 mmHg 62%
    16:00 +25°C° 0.1 mm 3 mps 750 mmHg 63%
    17:00 +24°C° 0.1 mm 3 mps 751 mmHg 72%
    18:00 +21°C° 0.1 mm 3 mps 751 mmHg 81%
    19:00 +19°C° 0.1 mm 3 mps 752 mmHg 89%
    20:00 +19°C° 0 mm 3 mps 752 mmHg 91%
    21:00 +19°C° 0 mm 3 mps 753 mmHg 92%
    22:00 +19°C° 0 mm 3 mps 753 mmHg 94%
    23:00 +19°C° 0.1 mm 3 mps 753 mmHg 94%

    31 July, Monday

    Time Temperature Precipitation Wind Pressure Humidity
    00:00 +19°C° 0.1 mm 3 mps 752 mmHg 95%
    01:00 +19°C° 0.1 mm 3 mps 752 mmHg 95%
    02:00 +19°C° 0.1 mm 3 mps 752 mmHg 95%
    03:00 +19°C° 0.1 mm 3 mps 752 mmHg 96%
    04:00 +19°C° 0.1 mm 3 mps 751 mmHg 96%
    05:00 +19°C° 0.1 mm 3 mps 752 mmHg 97%
    06:00 +19°C° 0.1 mm 3 mps 752 mmHg 97%
    07:00 +19°C° 0.1 mm 3 mps 752 mmHg 97%
    08:00 +20°C° 0.2 mm 3 mps 753 mmHg 92%
    09:00 +22°C° 0.2 mm 3 mps 753 mmHg 86%
    10:00 +24°C° 0.2 mm 3 mps 753 mmHg 81%
    11:00 +25°C° 0.3 mm 3 mps 753 mmHg 78%
    12:00 +25°C° 0.3 mm 3 mps 752 mmHg 76%
    13:00 +26°C° 0.3 mm 3 mps 752 mmHg 74%
    14:00 +25°C° 0.3 mm 3 mps 751 mmHg 76%
    15:00 +25°C° 0.3 mm 3 mps 751 mmHg 78%
    16:00 +25°C° 0.3 mm 3 mps 751 mmHg 80%
    17:00 +22°C° 0.1 mm 3 mps 751 mmHg 85%
    18:00 +21°C° 0.1 mm 3 mps 751 mmHg 90%
    19:00 +20°C° 0.1 mm 3 mps 752 mmHg 95%
    20:00 +20°C° 0 mm 3 mps 752 mmHg 96%
    21:00 +20°C° 0 mm 2 mps 753 mmHg 96%
    22:00 +20°C° 0 mm 2 mps 753 mmHg 96%
    23:00 +20°C° 0.2 mm 2 mps 752 mmHg 97%

    1 August, Tuesday

    Time Temperature Precipitation Wind Pressure Humidity
    00:00 +20°C° 0.2 mm 2 mps 752 mmHg 97%
    01:00 +20°C° 0.2 mm 2 mps 752 mmHg 97%
    02:00 +20°C° 0.1 mm 2 mps 752 mmHg 97%
    03:00 +20°C° 0.1 mm 2 mps 751 mmHg 97%
    04:00 +20°C° 0.1 mm 2 mps 751 mmHg 97%
    05:00 +20°C° 0.1 mm 2 mps 751 mmHg 97%
    06:00 +19°C° 0.1 mm 2 mps 752 mmHg 97%
    07:00 +19°C° 0.1 mm 2 mps 752 mmHg 97%
    08:00 +21°C° 0.1 mm 2 mps 753 mmHg 90%
    09:00 +22°C° 0.1 mm 3 mps 753 mmHg 83%
    10:00 +25°C° 0.1 mm 3 mps 753 mmHg 75%
    11:00 +26°C° 0.1 mm 3 mps 752 mmHg 70%
    12:00 +27°C° 0.1 mm 3 mps 752 mmHg 65%
    13:00 +28°C° 0.1 mm 4 mps 751 mmHg 60%
    14:00 +27°C° 0.1 mm 4 mps 751 mmHg 61%
    15:00 +27°C° 0.1 mm 4 mps 750 mmHg 62%
    16:00 +27°C° 0.1 mm 4 mps 750 mmHg 63%
    17:00 +25°C° 0 mm 3 mps 751 mmHg 73%
    18:00 +22°C° 0 mm 3 mps 751 mmHg 82%
    19:00 +20°C° 0 mm 3 mps 752 mmHg 92%
    20:00 +20°C° 0 mm 3 mps 752 mmHg 93%
    21:00 +19°C° 0 mm 3 mps 752 mmHg 94%
    22:00 +19°C° 0 mm 3 mps 753 mmHg 96%
    23:00 +19°C° 0 mm 3 mps 753 mmHg 96%

    2 August, Wednesday

    Time Temperature Precipitation Wind Pressure Humidity
    00:00 +19°C° 0 mm 3 mps 752 mmHg 96%
    01:00 +19°C° 0 mm 3 mps 752 mmHg 95%
    02:00 +19°C° 0 mm 3 mps 752 mmHg 95%
    03:00 +19°C° 0 mm 3 mps 752 mmHg 94%
    04:00 +19°C° 0 mm 3 mps 752 mmHg 94%
    05:00 +19°C° 0.1 mm 3 mps 752 mmHg 94%
    06:00 +19°C° 0.1 mm 3 mps 752 mmHg 94%
    07:00 +19°C° 0.1 mm 3 mps 752 mmHg 94%
    08:00 +20°C° 0.1 mm 3 mps 752 mmHg 86%
    09:00 +21°C° 0.1 mm 4 mps 752 mmHg 79%
    10:00 +23°C° 0.1 mm 4 mps 753 mmHg 71%
    11:00 +25°C° 0 mm 4 mps 752 mmHg 67%
    12:00 +25°C° 0 mm 4 mps 751 mmHg 62%
    13:00 +26°C° 0 mm 4 mps 751 mmHg 57%
    14:00 +26°C° 0 mm 4 mps 751 mmHg 58%
    15:00 +26°C° 0 mm 4 mps 750 mmHg 59%
    16:00 +25°C° 0 mm 4 mps 750 mmHg 60%
    17:00 +24°C° 0 mm 3 mps 750 mmHg 69%
    18:00 +21°C° 0 mm 3 mps 751 mmHg 79%
    19:00 +19°C° 0 mm 2 mps 751 mmHg 89%
    20:00 +19°C° 0.1 mm 2 mps 751 mmHg 90%
    21:00 +19°C° 0.1 mm 2 mps 751 mmHg 91%
    22:00 +19°C° 0.1 mm 2 mps 752 mmHg 92%
    23:00 +19°C° 0.1 mm 2 mps 751 mmHg 92%
    Show more